Station SISW1 - Smith Island, WA Image indicating link to RSS feed of recent meteorological observations for station SISW1


Conditions at SISW1 as of
(6:50 am PDT)
1350 GMT on 04/16/2024:
     

Click on the graph icon in the table below to see a time series plot of the last five days of that observation.

5-day plot - Wind Direction Wind Direction (WDIR): NW ( 310 deg true )
5-day plot - Wind Speed Wind Speed (WSPD): 9 kts
5-day plot - Wind Gust Wind Gust (GST): 11 kts
5-day plot - Atmospheric Pressure Atmospheric Pressure (PRES):30.34 in
5-day plot - Air Temperature Air Temperature (ATMP): 44.8 °F
5-day plot - Dew Point Dew Point (DEWP): 42.6 °F
5-day plot - Wind Chill Wind Chill (CHILL): 39.4 °F
5-day plot - Wind Speed at 10 Meters Wind Speed at 10 meters (WSPD10M): 8 kts
5-day plot - Wind Speed at 20 Meters Wind Speed at 20 meters (WSPD20M): 10 kts
5-day plot -  Wind Speed, Wind Gust and Atmospheric Pressure Combined plot of Wind Speed, Gust, and Air Pressure
Supplemental Measurements
Highest 1-minute Wind Speed
Time (PDT)5-day plot - 1-Minute Wind Speed WSPD 5-day plot - 1-Minute Wind Direction WDIR
6:49 am 10 kts-
Previous observations
TIME
(PDT)
5-day plot - Wind Direction
WDIR
 
5-day plot - Wind Speed
WSPD
kts
5-day plot - Wind Gust
GST
kts
5-day plot - Wave Height
WVHT
ft
5-day plot - Dominant Wave Period
DPD
sec
5-day plot - Average Wave Period
APD
sec
5-day plot - Mean Wave Direction
MWD
 
5-day plot - Atmospheric Pressure
PRES
in
5-day plot - Pressure Tendency
PTDY
in
5-day plot - Air Temperature
ATMP
°F
5-day plot - Water Temperature
WTMP
°F
5-day plot - Dew Point
DEWP
°F
5-day plot - Salinity
SAL
psu
5-day plot - Visibility
VIS
nmi
5-day plot - Tide (above MLLW)
TIDE
ft
2024-04-16 06:40 am NW 9 11----30.34- 44.6- 42.6---
2024-04-16 06:30 am NW 9 11----30.34- 44.6- 42.6---
2024-04-16 06:20 am NW 10 12----30.34- 44.4- 42.6---
2024-04-16 06:10 am NW 12 13----30.34- 44.4- 42.3---
2024-04-16 06:00 am NW 12 14----30.33+0.00 44.6- 42.6---
2024-04-16 05:50 amWNW 13 15----30.33- 44.6- 42.4---
2024-04-16 05:40 am NW 13 15----30.33- 44.6- 42.4---
2024-04-16 05:30 amWNW 13 16----30.34- 44.6- 42.6---
2024-04-16 05:20 amWNW 14 16----30.34- 44.6- 42.4---
2024-04-16 05:10 amWNW 15 17----30.34- 44.6- 42.1---
2024-04-16 05:00 amWNW 14 17----30.34+0.02 44.8- 42.4---
2024-04-16 04:50 amWNW 14 17----30.34- 44.8- 42.4---
2024-04-16 04:40 amWNW 15 18----30.34- 44.6- 42.3---
2024-04-16 04:30 amWNW 17 20----30.33- 44.6- 42.1---
2024-04-16 04:20 amWNW 19 23----30.33- 44.6- 41.5---
2024-04-16 04:10 amWNW 19 22----30.33- 44.8- 41.7---
2024-04-16 04:00 amWNW 18 22----30.33+0.00 45.0- 41.7---
2024-04-16 03:50 amWNW 17 21----30.33- 45.0- 41.2---
2024-04-16 03:40 amWNW 16 19----30.33- 45.0- 40.8---
2024-04-16 03:30 amWNW 15 18----30.33- 45.0- 41.4---
2024-04-16 03:20 amWNW 15 20----30.33- 45.0- 41.0---
2024-04-16 03:10 amWNW 15 19----30.33- 44.8- 41.0---
2024-04-16 03:00 am W 16 20----30.33+0.01 44.8- 41.0---
2024-04-16 02:50 amWNW 17 21----30.32- 44.8- 40.8---
2024-04-16 02:40 amWNW 17 21----30.32- 44.6- 40.6---
2024-04-16 02:30 amWNW 18 21----30.32- 44.6- 41.4---
2024-04-16 02:20 amWNW 18 22----30.32- 44.4- 41.2---
2024-04-16 02:10 amWNW 19 24----30.32- 44.8- 41.0---
2024-04-16 02:00 amWNW 19 23----30.32+0.01 44.8- 41.2---
2024-04-16 01:50 amWNW 19 24----30.32- 45.1- 41.5---
2024-04-16 01:40 amWNW 19 23----30.32- 45.3- 41.7---
2024-04-16 01:30 amWNW 18 22----30.32- 45.3- 41.9---
2024-04-16 01:20 amWNW 18 22----30.32- 45.3- 41.7---
2024-04-16 01:10 amWNW 17 22----30.32- 45.3- 42.1---
2024-04-16 01:00 amWNW 18 22----30.32+0.04 45.1- 42.1---
2024-04-16 12:50 amWNW 20 24----30.32- 45.1- 41.4---
2024-04-16 12:40 amWNW 20 25----30.32- 45.0- 41.2---
2024-04-16 12:30 amWNW 22 28----30.32- 45.0- 41.2---
2024-04-16 12:20 amWNW 24 31----30.31- 45.5- 41.2---
2024-04-16 12:10 amWNW 21 28----30.32- 45.7- 41.4---
2024-04-16 12:00 amWNW 21 25----30.31+0.05 45.3- 41.4---
2024-04-15 11:50 pmWNW 22 26----30.32- 45.3- 41.4---
2024-04-15 11:40 pmWNW 21 26----30.32- 45.1- 42.1---
2024-04-15 11:30 pmWNW 24 29----30.31- 45.3- 41.7---
2024-04-15 11:20 pm W 22 28----30.31- 45.5- 41.2---
2024-04-15 11:10 pm W 22 26----30.30- 45.3- 41.0---
2024-04-15 11:00 pm W 25 31----30.30+0.04 45.3- 41.5---
2024-04-15 10:50 pmWNW 26 33----30.30- 45.7- 41.7---
2024-04-15 10:40 pmWNW 26 33----30.30- 45.9- 41.5---
2024-04-15 10:30 pmWNW 26 34----30.30- 46.0- 41.7---
2024-04-15 10:20 pmWNW 26 32----30.30- 46.0- 42.1---
2024-04-15 10:10 pmWNW 28 35----30.29- 46.2- 42.1---
2024-04-15 10:00 pmWNW 30 36----30.28+0.06 46.2- 41.9---
2024-04-15 09:50 pmWNW 29 35----30.29- 46.0- 41.0---
2024-04-15 09:40 pmWNW 30 36----30.28- 45.9- 41.5---
2024-04-15 09:30 pmWNW 28 35----30.28- 45.9- 42.3---
2024-04-15 09:20 pmWNW 31 37----30.28- 45.7- 42.4---
2024-04-15 09:10 pmWNW 32 39----30.26- 45.9- 42.3---
2024-04-15 09:00 pmWNW 31 37----30.27+0.02 46.2- 43.3---
2024-04-15 08:50 pmWNW 29 36----30.26- 46.6- 42.8---
2024-04-15 08:40 pmWNW 28 35----30.26- 46.4- 43.2---
2024-04-15 08:30 pmWNW 27 33----30.26- 46.4- 42.6---
2024-04-15 08:20 pmWNW 30 37----30.26- 46.4- 42.4---
2024-04-15 08:10 pmWNW 28 36----30.25- 46.6- 42.8---
2024-04-15 08:00 pmWNW 27 33----30.26+0.03 47.1- 42.4---
2024-04-15 07:50 pmWNW 30 36------------
2024-04-15 07:40 pmWNW 31 38----30.24- 47.3- 41.5---
2024-04-15 07:30 pmWNW 30 36----30.24- 47.3- 41.7---
2024-04-15 07:20 pmWNW 29 36----30.24- 47.5- 42.1---
2024-04-15 07:10 pm NW 32 40----30.24- 47.8- 41.0---
2024-04-15 07:00 pm NW 35 40----30.22-0.01 48.2- 41.0---
2024-04-15 06:50 pmWNW 32 39----30.22- 48.4- 41.4---
2024-04-15 06:40 pm NW 30 36----30.23- 48.4- 41.7---
2024-04-15 06:30 pmWNW 28 35----30.24- 48.7- 41.7---
2024-04-15 06:20 pmWNW 25 30----30.24- 48.9- 41.7---
2024-04-15 06:10 pm NW 26 32----30.24- 48.9- 41.5---
2024-04-15 06:00 pm NW 28 35----30.24+0.00 48.9- 40.8---
2024-04-15 05:50 pm NW 28 32----30.24- 48.9- 40.5---
2024-04-15 05:40 pm NW 26 32----30.24- 49.1- 40.5---
2024-04-15 05:20 pmWNW 25 30----30.23- 49.5- 40.8---
2024-04-15 05:10 pmWNW 24 30----30.23- 49.5- 41.5---
2024-04-15 05:00 pmWNW 24 30----30.23-0.03 49.5- 41.7---
2024-04-15 04:50 pm NW 23 28----30.23- 49.5- 41.7---
2024-04-15 04:40 pm NW 22 27----30.23- 49.3- 41.7---
2024-04-15 04:30 pm NW 20 25----30.23- 49.5- 41.5---
2024-04-15 04:20 pmWNW 24 30----30.23- 49.5- 40.6---
2024-04-15 04:10 pmWNW 23 27----30.23- 49.5- 40.8---
2024-04-15 04:00 pmWNW 24 29----30.23-0.01 49.5- 40.5---
2024-04-15 03:50 pm NW 25 31----30.24- 49.3- 39.2---
2024-04-15 03:40 pmWNW 25 30----30.24- 49.3- 39.7---
2024-04-15 03:30 pmWNW 26 32----30.23- 49.3- 39.4---
2024-04-15 03:20 pmWNW 25 30----30.24- 49.1- 39.0---
2024-04-15 03:10 pmWNW 23 28----30.24- 49.1- 39.6---
2024-04-15 03:00 pm NW 24 27----30.24+0.00 48.9- 38.8---
2024-04-15 02:50 pmWNW 22 27----30.25- 49.1- 40.3---
2024-04-15 02:40 pmWNW 21 26----30.25- 49.1- 40.5---
2024-04-15 02:30 pmWNW 18 23----30.25- 48.9- 41.0---
2024-04-15 02:20 pmWNW 16 20----30.26- 48.9- 42.1---
2024-04-15 02:10 pmWNW 18 21----30.26- 48.7- 41.4---
2024-04-15 02:00 pmWNW 20 25----30.26+0.02 48.7- 40.5---
2024-04-15 01:50 pmWNW 20 25----30.25- 48.7- 41.5---
2024-04-15 01:40 pmWNW 20 25----30.26- 48.7- 41.5---
2024-04-15 01:30 pmWNW 20 27----30.26- 48.6- 42.3---
2024-04-15 01:20 pmWNW 19 24----30.25- 48.6- 42.4---
2024-04-15 01:10 pmWNW 19 25----30.25- 48.6- 42.1---
2024-04-15 01:00 pmWNW 19 26----30.25+0.01 48.4- 42.1---
2024-04-15 12:50 pmWNW 19 25----30.25- 48.4- 42.4---
2024-04-15 12:40 pmWNW 20 25----30.24- 48.2- 42.6---
2024-04-15 12:30 pmWNW 19 26----30.25- 48.2- 42.8---
2024-04-15 12:20 pmWNW 20 25----30.24- 48.2- 42.4---
2024-04-15 12:10 pmWNW 19 25----30.25- 48.2- 41.9---
2024-04-15 12:00 pmWNW 20 25----30.25+0.02 48.2- 42.1---
2024-04-15 11:50 amWNW 19 24----30.24- 48.2- 41.9---
2024-04-15 11:40 amWNW 20 25----30.24- 48.0- 41.9---
2024-04-15 11:30 amWNW 21 25----30.24- 47.8- 42.1---
2024-04-15 11:20 amWNW 20 25----30.24- 48.0- 43.0---
2024-04-15 11:10 amWNW 19 25----30.24- 48.0- 43.2---
2024-04-15 11:00 amWNW 21 26----30.24+0.03 47.8- 43.0---
2024-04-15 10:50 amWNW 22 27----30.24- 47.8- 43.2---
2024-04-15 10:40 amWNW 19 26----30.24- 48.0- 43.5---
2024-04-15 10:30 amWNW 19 24----30.24- 47.8- 43.3---
2024-04-15 10:20 amWNW 18 22----30.24- 47.7- 43.7---
2024-04-15 10:10 amWNW 19 22----30.24- 47.5- 43.7---
2024-04-15 10:00 amWNW 19 23----30.23+0.04 47.5- 43.9---
2024-04-15 09:50 amWNW 20 24------------
2024-04-15 09:40 amWNW 19 22----30.23- 47.3- 43.9---
2024-04-15 09:30 amWNW 19 23----30.23- 47.5- 43.5---
2024-04-15 09:20 amWNW 18 23----30.22- 47.7- 43.5---
2024-04-15 09:10 amWNW 18 23----30.23- 47.8- 44.1---
2024-04-15 09:00 amWNW 19 24----30.22+0.04 47.8- 43.7---
2024-04-15 08:50 amWNW 20 24----30.22- 47.8- 43.9---
2024-04-15 08:40 amWNW 19 25----30.22- 47.8- 43.9---
2024-04-15 08:30 amWNW 19 26----30.22- 47.8- 43.9---
2024-04-15 08:20 amWNW 19 24----30.21- 48.0- 44.2---
2024-04-15 08:10 amWNW 19 24----30.21- 48.0- 44.2---
2024-04-15 08:00 amWNW 18 23----30.21+0.04 48.0- 43.9---
2024-04-15 07:50 amWNW 19 24----30.21- 48.2- 43.7---
2024-04-15 07:40 amWNW 20 23----30.20- 48.2- 43.3---
2024-04-15 07:30 amWNW 19 24----30.20- 48.2- 43.7---
2024-04-15 07:20 amWNW 18 22----30.20- 48.0- 43.9---
2024-04-15 07:10 amWNW 18 23----30.19- 48.0- 43.7---
2024-04-15 07:00 amWNW 17 20----30.19+0.03 48.0- 44.4---
2024-04-15 06:50 amWNW 19 22----30.18- 48.0- 44.1---